Flag for Spain Weather past 2 weeks in Santander, Spain

Now
61 °F

Partly sunny.


Feels Like: 61 °F
Forecast: 52 / 65 °F
Wind: 10 mph from West

Location: Santander / Parayas

Current Time: May 26, 2015 at 12:39:31 PM

Latest Report: May 26, 2015 at 12:00 PM


Visibility: N/A

Pressure: 30.27 "Hg

Humidity: 77%

Dew point: 54 °F

Location of SantanderLocation

Historic Weather in Santander — Graph

°F

Santander temperature yesterday

Maximum temperature yesterday: 64 °F (at 2:30 PM)
Minimum temperature yesterday: 55 °F (at 10:30 PM)
Average temperature yesterday: 60 °F

Past Weeks' High & Low Weather Summary

 TemperatureHumidityPressure
High68 °F (May 13, 2:30 PM)100% (May 13, 6:00 AM)30.54 "Hg (May 13, 6:00 AM)
Low46 °F (May 18, 5:30 AM)55% (May 21, 3:00 PM)30.04 "Hg (May 13, 5:30 AM)
Average57 °F80%30.25 "Hg
* Reported May 11 11:00 AM — May 26 11:30 AM, Santander, Weather by CustomWeather, © 2015

Note: Actual official high and low records may vary slightly from our data, if they occured in-between our weather recording intervals... More about our weather records

Advertising

Santander weather history for previous 24 hours

 ConditionsComfort  
Time TempWeatherWind HumidityBarometerVisibility
11:30 AM
Tue, May 26
61 °FBroken clouds.10 mph77%30.27 "HgN/A
11:00 AM59 °FBroken clouds.9 mph77%30.27 "HgN/A
10:30 AM61 °FBroken clouds.9 mph77%30.27 "HgN/A
10:00 AM59 °FBroken clouds.6 mph82%30.27 "HgN/A
9:30 AM59 °FBroken clouds.7 mph82%30.27 "HgN/A
9:00 AM57 °FBroken clouds.5 mph88%30.27 "HgN/A
8:30 AM55 °FBroken clouds.5 mph94%30.24 "HgN/A
8:00 AM55 °FBroken clouds.6 mph94%30.24 "HgN/A
7:30 AM55 °FPartly cloudy.5 mph88%30.24 "HgN/A
7:00 AM55 °FPartly cloudy.5 mph88%30.24 "HgN/A
6:30 AM55 °FPartly cloudy.2 mph94%30.24 "HgN/A
6:00 AM55 °FPassing clouds.5 mph88%30.24 "HgN/A
5:30 AM55 °FPartly cloudy.3 mph88%30.24 "HgN/A
11:00 PM
Mon, May 25
55 °FMostly cloudy.7 mph94%30.27 "HgN/A
10:30 PM55 °FLight rain. Fog.8 mph94%30.24 "Hg2 mi
10:00 PM57 °FLight rain. Fog.7 mph94%30.24 "Hg1 mi
9:30 PM57 °FMostly cloudy.6 mph94%30.24 "Hg4 mi
9:00 PM57 °FCloudy.6 mph94%30.24 "Hg4 mi
8:30 PM57 °FCloudy.10 mph94%30.24 "Hg4 mi
8:00 PM59 °FMostly cloudy.8 mph88%30.21 "Hg4 mi
7:30 PM59 °FFog.9 mph88%30.21 "Hg2 mi
7:00 PM59 °FBroken clouds.7 mph88%30.21 "Hg6 mi
6:30 PM59 °FMore clouds than sun.8 mph88%30.21 "Hg4 mi
6:00 PM61 °FBroken clouds.8 mph77%30.21 "HgN/A
5:30 PM61 °FPartly sunny.8 mph77%30.24 "HgN/A
5:00 PM61 °FPartly sunny.10 mph77%30.24 "HgN/A
4:30 PM63 °FBroken clouds.9 mph73%30.24 "HgN/A
4:00 PM63 °FPartly sunny.8 mph73%30.24 "HgN/A
3:30 PM64 °FPartly sunny.8 mph64%30.24 "HgN/A
3:00 PM63 °FBroken clouds.10 mph73%30.24 "HgN/A
2:30 PM64 °FScattered clouds.7 mph68%30.24 "HgN/A
2:00 PM63 °FBroken clouds.9 mph73%30.24 "HgN/A
1:30 PM63 °FBroken clouds.8 mph73%30.24 "HgN/A
1:00 PM63 °FScattered clouds.9 mph73%30.24 "HgN/A
12:30 PM61 °FBroken clouds.7 mph77%30.24 "HgN/A
12:00 PM61 °FBroken clouds.6 mph77%30.24 "HgN/A
Weather by CustomWeather, © 2015

See weather overviewHow to use our weather pages